Weather History for VTBD - June, 2013

Change the Weather History Date:

Thursday, June 27, 2013

  Actual Average Record
Temperature  
Mean Temperature 86 °F -  
Max Temperature 92 °F 90 °F 98 °F (1997)
Min Temperature 81 °F 77 °F 73 °F (2010)
Cooling Degree Days 22    
Growing Degree Days 36 (Base 50)    
Moisture  
Dew Point 75 °F    
Average Humidity 68    
Maximum Humidity 84    
Minimum Humidity 47    
Precipitation  
Precipitation 0.00 in 0.19 in - ()
Sea Level Pressure  
Sea Level Pressure 29.76 in    
Wind  
Wind Speed 5 mph ()    
Max Wind Speed 10 mph    
Max Gust Speed -    
Visibility 6.2 miles    
Events      
Averages and records for this station are not official NWS values.
T = Trace of Precipitation, MM = Missing Value Source: Averaged Metar Reports

Daily Weather History Graph

Daily Weather History Graph

Search for Another Location

Airport or City:

Trip Planner

Search our weather history database for the weather conditions in past years. The results will help you decide how hot, cold, wet, or windy it might be!

Date:

Astronomy

Jun. 27, 2013 Rise Set
Actual Time 5:52 AM ICT 6:48 PM ICT
Civil Twilight 5:28 AM ICT 7:12 PM ICT
Nautical Twilight 5:01 AM ICT 7:40 PM ICT
Astronomical Twilight 4:32 AM ICT 8:08 PM ICT
Moon 10:16 PM ICT (6/27) 9:35 AM ICT (6/27)
Length of Visible Light 13h 43m
Length of Day
12h 56m
Waning Gibbous, 81% of the Moon is Illuminated
Jun 27
Waning Gibbous
Jun 30
Last Quarter
Jul 8
New
Jul 16
First Quarter
Jul 23
Full

Hourly Weather History & Observations

Time (ICT) Temp. Heat Index Dew Point Humidity Pressure Visibility Wind Dir Wind Speed Gust Speed Precip Events Conditions
12:00 AM 82.4 °F 89.5 °F 75.2 °F 79% 29.83 in 6.2 mi South 2.3 mph - N/A   Mostly Cloudy
12:30 AM 82.4 °F 89.5 °F 75.2 °F 79% 29.80 in 6.2 mi South 3.5 mph - N/A   Mostly Cloudy
1:00 AM 82 °F - 76 °F 77% 29.82 in 6 mi South 2.3 mph - -   Scattered Clouds
1:00 AM 82.4 °F 89.5 °F 75.2 °F 79% 29.80 in 6.2 mi South 2.3 mph - N/A   Mostly Cloudy
1:30 AM 82.4 °F 90.9 °F 77.0 °F 84% 29.80 in 6.2 mi South 2.3 mph - N/A   Mostly Cloudy
2:00 AM 82.4 °F 90.9 °F 77.0 °F 84% 29.80 in 6.2 mi SSW 2.3 mph - N/A   Mostly Cloudy
2:30 AM 82.4 °F 90.9 °F 77.0 °F 84% 29.80 in 6.2 mi SSW 3.5 mph - N/A   Mostly Cloudy
3:00 AM 82.4 °F 90.9 °F 77.0 °F 84% 29.80 in 6.2 mi WSW 4.6 mph - N/A   Mostly Cloudy
3:30 AM 82.4 °F 89.5 °F 75.2 °F 79% 29.77 in 6.2 mi SW 5.8 mph - N/A   Mostly Cloudy
4:00 AM 82.4 °F 89.5 °F 75.2 °F 79% 29.77 in 6.2 mi West 6.9 mph - N/A   Mostly Cloudy
4:30 AM 82.4 °F 89.5 °F 75.2 °F 79% 29.77 in 6.2 mi SSW 4.6 mph - N/A   Mostly Cloudy
5:00 AM 82.4 °F 89.5 °F 75.2 °F 79% 29.77 in 6.2 mi SSW 3.5 mph - N/A   Mostly Cloudy
5:30 AM 82.4 °F 89.5 °F 75.2 °F 79% 29.77 in 6.2 mi SSW 5.8 mph - N/A   Mostly Cloudy
6:00 AM 82.4 °F 90.9 °F 77.0 °F 84% 29.77 in 6.2 mi SSW 8.1 mph - N/A   Mostly Cloudy
6:30 AM 82.4 °F 90.9 °F 77.0 °F 84% 29.77 in 6.2 mi SW 6.9 mph - N/A   Mostly Cloudy
7:00 AM 82 °F - 77 °F 81% 29.78 in 6 mi SSW 5.8 mph - -   Scattered Clouds
7:00 AM 82.4 °F 90.9 °F 77.0 °F 84% 29.77 in 6.2 mi SSW 5.8 mph - N/A   Mostly Cloudy
7:30 AM 84.2 °F 94.1 °F 77.0 °F 79% 29.77 in 6.2 mi WSW 3.5 mph - N/A   Mostly Cloudy
8:00 AM 84.2 °F 94.1 °F 77.0 °F 79% 29.77 in 6.2 mi WSW 5.8 mph - N/A   Mostly Cloudy
8:30 AM 86.0 °F 96.9 °F 77.0 °F 74% 29.80 in 6.2 mi SSW 9.2 mph - N/A   Mostly Cloudy
9:00 AM 87.8 °F 97.6 °F 75.2 °F 66% 29.80 in 6.2 mi WSW 8.1 mph - N/A   Mostly Cloudy
9:30 AM 87.8 °F 95.6 °F 73.4 °F 62% 29.80 in 6.2 mi WSW 9.2 mph - N/A   Mostly Cloudy
10:00 AM 89.6 °F 98.2 °F 73.4 °F 59% 29.80 in 6.2 mi SW 9.2 mph - N/A   Mostly Cloudy
10:30 AM 89.6 °F 98.2 °F 73.4 °F 59% 29.80 in 6.2 mi West 8.1 mph - N/A   Mostly Cloudy
11:00 AM 89.6 °F 99.8 °F 75.2 °F 62% 29.80 in 6.2 mi West 10.4 mph - N/A   Mostly Cloudy
11:30 AM 89.6 °F 99.8 °F 75.2 °F 62% 29.80 in 6.2 mi West 8.1 mph - N/A   Mostly Cloudy
12:00 PM 91.4 °F 100.1 °F 73.4 °F 55% 29.77 in 6.2 mi West 5.8 mph - N/A   Mostly Cloudy
12:30 PM 91.4 °F 100.1 °F 73.4 °F 55% 29.77 in 6.2 mi WNW 9.2 mph - N/A   Mostly Cloudy
1:00 PM 92 °F - 74 °F 47% 29.78 in 6 mi West 9.2 mph - -   Scattered Clouds
1:00 PM 91.4 °F 100.1 °F 73.4 °F 55% 29.77 in 6.2 mi West 9.2 mph - N/A   Mostly Cloudy
1:30 PM 91.4 °F 100.1 °F 73.4 °F 55% 29.74 in 6.2 mi NW 8.1 mph - N/A   Mostly Cloudy
2:00 PM 93.2 °F 102.4 °F 73.4 °F 52% 29.74 in 6.2 mi WNW 10.4 mph - N/A   Mostly Cloudy
2:30 PM 91.4 °F 102.5 °F 75.2 °F 59% 29.74 in 6.2 mi West 6.9 mph - N/A   Mostly Cloudy
3:00 PM 91.4 °F 102.5 °F 75.2 °F 59% 29.74 in 6.2 mi WNW 9.2 mph - N/A   Mostly Cloudy
3:30 PM 91.4 °F 102.5 °F 75.2 °F 59% 29.71 in 6.2 mi WNW 10.4 mph - N/A   Mostly Cloudy
4:00 PM 91.4 °F 102.5 °F 75.2 °F 59% 29.71 in 6.2 mi West 9.2 mph - N/A   Mostly Cloudy
4:30 PM 91.4 °F 102.5 °F 75.2 °F 59% 29.68 in 6.2 mi WNW 8.1 mph - N/A   Mostly Cloudy
5:00 PM 91.4 °F 102.5 °F 75.2 °F 59% 29.71 in 6.2 mi WNW 8.1 mph - N/A   Mostly Cloudy
5:30 PM 91.4 °F 102.5 °F 75.2 °F 59% 29.71 in 6.2 mi WSW 9.2 mph - N/A   Mostly Cloudy
6:00 PM 89.6 °F 99.8 °F 75.2 °F 62% 29.71 in 6.2 mi West 8.1 mph - N/A   Mostly Cloudy
6:30 PM 89.6 °F 99.8 °F 75.2 °F 62% 29.71 in 6.2 mi WSW 6.9 mph - N/A   Mostly Cloudy
7:00 PM 89 °F - 75 °F 55% 29.73 in 6 mi WSW 8.1 mph - -   Scattered Clouds
7:00 PM 89.6 °F 99.8 °F 75.2 °F 62% 29.71 in 6.2 mi WSW 8.1 mph - N/A   Mostly Cloudy
7:30 PM 87.8 °F 97.6 °F 75.2 °F 66% 29.71 in 6.2 mi West 6.9 mph - N/A   Mostly Cloudy
8:00 PM 87.8 °F 95.6 °F 73.4 °F 62% 29.71 in 6.2 mi West 5.8 mph - N/A   Mostly Cloudy
8:30 PM 87.8 °F 93.8 °F 71.6 °F 58% 29.74 in 6.2 mi WSW 8.1 mph - N/A   Mostly Cloudy
9:00 PM 86.0 °F 93.4 °F 73.4 °F 66% 29.74 in 6.2 mi West 4.6 mph - N/A   Mostly Cloudy
9:30 PM 86.0 °F 93.4 °F 73.4 °F 66% 29.74 in 6.2 mi WSW 6.9 mph - N/A   Mostly Cloudy
10:00 PM 86.0 °F 95.1 °F 75.2 °F 70% 29.77 in 6.2 mi West 4.6 mph - N/A   Mostly Cloudy
10:30 PM 86.0 °F 93.4 °F 73.4 °F 66% 29.77 in 6.2 mi West 5.8 mph - N/A   Mostly Cloudy
11:00 PM 84.2 °F 90.9 °F 73.4 °F 70% 29.77 in 6.2 mi West 3.5 mph - N/A   Mostly Cloudy
11:30 PM 84.2 °F 90.9 °F 73.4 °F 70% 29.80 in 6.2 mi WSW 4.6 mph - N/A   Mostly Cloudy